Flag for U.S.A. Weather past 2 weeks in Fort Wayne, Indiana, U.S.A.

Now
70 °F

Scattered clouds.


Feels Like: 70 °F
Forecast: 60 / 78 °F
Wind: 9 mph from East

Location: Fort Wayne International Airport

Current Time: Aug 28, 2014 at 11:45:14 AM

Latest Report: Aug 28, 2014 at 10:54 AM


Visibility: 10 mi

Pressure: 30.14 "Hg

Humidity: 81%

Dew point: 64 °F

Location of Fort WayneLocation

Historic Weather in Fort Wayne — Graph

°F

Fort Wayne temperature yesterday

Maximum temperature yesterday: 82 °F (at 2:54 PM)
Minimum temperature yesterday: 68 °F (at 11:54 PM)
Average temperature yesterday: 74 °F

Past Weeks' High & Low Weather Summary

 TemperatureHumidityPressure
High87 °F (Aug 25, 2:54 PM)100% (Aug 17, 8:54 AM)30.14 "Hg (Aug 17, 8:54 AM)
Low45 °F (Aug 15, 5:54 AM)34% (Aug 15, 4:54 PM)29.76 "Hg (Aug 19, 3:54 PM)
Average71 °F79%29.99 "Hg
* Reported Aug 13 10:54 AM — Aug 28 10:54 AM, Fort Wayne, Weather by CustomWeather, © 2014

Note: Actual official high and low records may vary slightly from our data, if they occured in-between our weather recording intervals... More about our weather records

Advertising

Fort Wayne weather history for previous 24 hours

 ConditionsComfort  
Time TempWeatherWind HumidityBarometerVisibility
10:54 AM
Aug 28
70 °FScattered clouds.9 mph81%30.14 "Hg10 mi
9:54 AM68 °FScattered clouds.7 mph84%30.13 "Hg9 mi
8:54 AM65 °FScattered clouds.6 mph87%30.13 "Hg9 mi
7:54 AM62 °FPassing clouds.8 mph90%30.13 "Hg10 mi
6:54 AM60 °FPartly cloudy.3 mph93%30.13 "Hg9 mi
5:54 AM62 °FPassing clouds.3 mph90%30.11 "Hg10 mi
4:54 AM61 °FPassing clouds.3 mph93%30.10 "Hg10 mi
3:54 AM61 °FPassing clouds.3 mph93%30.11 "Hg10 mi
2:54 AM64 °FPassing clouds.3 mph87%30.09 "Hg10 mi
1:54 AM64 °FPassing clouds.5 mph84%30.10 "Hg10 mi
12:54 AM65 °FPassing clouds.7 mph85%30.10 "Hg10 mi
11:54 PM
Aug 27
68 °FPassing clouds.10 mph76%30.09 "Hg10 mi
10:54 PM69 °FPassing clouds.7 mph73%30.09 "Hg10 mi
9:54 PM69 °FPassing clouds.5 mph76%30.09 "Hg10 mi
8:54 PM70 °FPartly sunny.7 mph73%30.07 "Hg10 mi
7:54 PM75 °FScattered clouds.9 mph64%30.06 "Hg10 mi
6:54 PM78 °FPartly sunny.8 mph50%30.06 "Hg10 mi
5:54 PM81 °FPartly sunny.7 mph49%30.06 "Hg10 mi
4:54 PM81 °FPartly sunny.6 mph54%30.07 "Hg10 mi
3:54 PM81 °FBroken clouds.6 mph54%30.07 "Hg10 mi
2:54 PM82 °FBroken clouds.8 mph53%30.09 "Hg10 mi
1:54 PM81 °FBroken clouds.5 mph58%30.09 "Hg10 mi
12:54 PM80 °FBroken clouds.3 mph62%30.10 "Hg10 mi
11:54 AM78 °FBroken clouds.6 mph71%30.10 "Hg10 mi
Weather by CustomWeather, © 2014

See weather overviewHow to use our weather pages